Location: Stoke Bliss
(52.2667°N, 2.5167°W)
Time: 19:10:27
(UTC+00:00)

ARGOS - Pass Details

Date: 03 March 2021
Orbit: 819 x 835 km, 98.4° (Epoch: 17 April)

Event Time Altitude Azimuth Distance (km) Brightness Sun altitude
Rises 19:31:34 0° 181° (S) 3,369 6.2 -15.8°
Reaches altitude 10° 19:33:59 10° 187° (S) 2,441 5.6 -16.1°
Maximum altitude 19:39:13 49° 261° (W) 1,079 4.2 -16.9°
Drops below altitude 10° 19:44:30 10° 336° (NNW) 2,461 6.1 -17.7°
Sets 19:46:58 0° 342° (NNW) 3,399 6.8 -18.1°
